User: anonymous   Login
Location: �chenoz-la-M�line
(47.6009°N, 6.1354°E)
Time: 02:59:11
(UTC+00:00)
Language:

Cosmos 2208 Rocket - Orbit

View from above orbital plane
View from above orbital plane
View from above satellite
View from above satellite

Ground track
Ground track

The orbit data is extracted from the following two-line orbital elements,

1 22081U 92053B   21102.30690812  .00000013  00000-0  14154-4 0  9990
2 22081  74.0455  48.1505 0035202  34.3247 326.0169 14.33518765498267
Epoch (UTC): 12 April 2021 07:21:56
Eccentricity: 0.0035202
inclination: 74.0455°
perigee height: 755 km
apogee height: 805 km
right ascension of ascending node: 48.1505°
argument of perigee: 34.3247°
revolutions per day: 14.33518765
mean anomaly at epoch: 326.0169°
orbit number at epoch: 49826

The dashed part of the orbit path shows where the satellite is in the earth's shadow,  

DLR